Wind_Speed
24 24 24 24 24 25 25 24 24 24 23 24 23 22 22 24 23 22 21 22 22 23 24 26 26 27 27 28 29 30 30 32 33 33 33 35 35 36 37 38 38 37 35 33
25 23 23 24 24 24 24 24 24 24 23 23 23 23 22 24 23 23 22 22 22 22 23 24 25 25 26 28 30 30 31 32 33 33 34 35 36 36 37 38 39 38 37 36
25 24 24 24 24 24 24 24 23 23 23 23 23 23 22 25 24 23 23 22 22 22 23 23 23 25 26 27 28 29 31 33 33 32 32 33 35 36 38 38 39 39 39 38
25 25 25 25 24 24 24 24 23 23 24 23 23 24 21 23 23 23 22 22 22 22 23 24 22 22 24 25 27 29 29 31 31 32 32 32 34 36 36 37 38 38 39 40
26 26 26 26 25 25 25 24 24 24 25 24 23 24 22 22 22 22 22 21 21 22 23 24 24 23 22 24 25 27 29 29 30 31 33 32 33 34 35 36 39 39 39 39
28 27 27 26 26 26 26 25 26 26 26 26 23 25 23 22 23 22 22 22 21 22 23 24 25 24 23 23 24 26 27 29 30 31 33 34 34 34 34 34 37 38 37 37
29 28 28 28 28 28 27 26 27 28 28 27 25 25 24 24 24 24 23 23 23 23 23 24 25 25 24 24 25 26 27 28 30 32 33 34 35 34 34 34 35 36 36 38
32 31 30 29 29 29 29 29 28 29 29 28 26 26 25 24 25 25 25 24 24 24 24 24 26 26 26 25 25 26 26 27 29 31 33 34 35 35 35 35 35 35 36 38
34 34 32 32 31 32 31 31 29 30 30 30 28 25 25 25 25 26 25 25 25 24 24 25 26 27 27 27 27 27 27 27 28 29 32 33 35 36 37 36 35 35 35 36
36 36 35 34 34 34 33 32 31 32 32 31 29 26 26 25 26 26 26 26 26 25 25 26 27 28 28 29 29 29 29 28 27 28 31 33 35 35 35 37 36 35 36 37
37 38 38 37 36 35 35 34 34 34 34 33 31 28 27 27 27 27 27 26 26 27 27 27 28 29 29 31 31 31 32 32 31 31 32 32 33 34 35 36 36 36 36 37
38 39 40 39 38 38 37 36 36 36 35 34 33 31 30 30 29 29 28 27 28 28 28 28 29 29 30 31 32 33 33 33 34 34 34 34 34 35 36 36 37 37 37 38
39 40 40 40 40 39 39 38 37 37 37 36 34 32 31 31 31 31 30 30 30 30 31 30 31 32 31 32 33 34 34 35 35 35 35 36 36 37 38 39 39 40 40 39
41 42 42 41 40 40 39 38 38 38 38 37 35 33 32 33 32 32 32 32 32 32 33 33 33 34 35 34 33 34 34 35 36 36 36 36 38 38 38 40 39 40 41 41
40 41 42 42 42 41 41 40 39 39 38 38 35 35 33 33 33 33 33 33 33 34 34 35 35 35 36 35 35 35 35 35 35 36 36 36 37 38 39 40 40 41 41 42
40 40 40 41 41 42 42 41 41 40 40 40 38 35 34 34 35 34 34 35 35 35 36 36 36 36 36 37 36 36 37 36 36 37 37 37 37 38 38 39 40 41 42 42
39 39 39 40 40 42 43 41 40 40 40 41 41 38 37 37 37 36 36 36 37 37 37 37 37 37 37 37 38 37 38 37 38 38 39 39 39 39 39 40 41 42 43 44
38 38 39 39 39 43 42 40 39 39 40 40 40 39 39 39 38 38 38 38 39 39 39 39 39 39 39 39 39 39 39 39 39 39 40 40 41 41 41 42 42 43 45 45
37 37 37 39 39 41 40 38 38 39 39 38 39 39 40 40 39 39 39 39 39 40 40 40 40 40 40 40 40 40 40 40 41 41 41 41 42 42 43 43 43 44 45 46
37 36 36 37 38 39 38 37 37 38 38 36 37 38 38 39 39 39 39 39 39 40 40 41 40 40 40 40 41 41 42 41 41 42 42 43 43 44 44 44 44 45 46 47
37 38 37 36 37 37 36 36 36 37 36 36 36 36 36 37 38 38 39 40 40 40 40 40 40 41 41 41 41 42 42 43 43 43 43 44 44 45 45 46 46 47 47 48
35 37 37 36 37 37 35 36 35 35 35 36 36 35 36 36 36 37 38 39 39 39 39 40 41 41 42 42 43 43 43 44 45 45 45 45 46 46 47 48 48 48 49 49
34 35 36 36 37 36 35 35 35 36 35 35 36 36 35 35 35 36 36 37 37 38 38 39 40 40 41 42 43 43 43 44 44 45 46 46 47 48 48 49 49 49 49 49
33 33 34 34 34 34 35 35 35 36 36 36 36 36 36 36 36 36 36 36 36 37 37 38 39 39 40 40 41 42 43 43 43 45 45 47 47 48 48 49 49 49 49 49
32 32 33 33 32 33 33 34 34 34 35 37 37 38 38 38 37 37 36 37 37 37 38 38 38 39 39 40 40 41 41 42 43 44 45 46 46 47 48 48 48 48 48 49
30 31 32 32 32 32 32 32 33 33 34 35 36 36 37 37 37 37 37 38 38 38 39 39 39 39 39 40 40 41 41 42 42 43 44 45 46 47 47 46 47 47 47 47
Wind_Direction
276 274 272 271 270 271 272 271 270 268 268 269 268 267 264 259 258 258 258 256 255 254 251 248 248 247 246 245 243 243 242 241 241 245 245 242 240 239 241 242 244 244 243 245
273 272 272 270 269 269 271 270 269 269 270 271 270 268 265 259 258 258 256 257 258 256 256 255 252 250 247 247 243 244 244 243 244 246 244 243 241 241 242 242 243 245 244 245
272 271 269 268 268 269 270 270 269 268 271 272 272 270 264 259 259 260 257 256 259 259 257 257 254 251 250 251 246 247 247 246 245 244 244 242 243 244 244 243 244 245 245 245
271 269 268 267 267 268 268 269 269 270 271 273 274 272 264 260 259 260 259 258 259 259 257 256 254 256 254 255 252 250 250 249 247 246 245 246 245 244 244 243 244 245 245 244
271 269 266 266 265 266 267 267 269 271 272 272 273 272 267 261 260 261 260 260 260 260 258 255 255 258 258 256 256 253 252 250 250 251 248 249 247 246 247 245 244 245 246 247
268 267 265 264 263 264 265 266 267 269 270 270 270 271 269 265 262 261 260 259 259 260 258 256 255 257 258 258 259 258 257 255 255 257 255 253 253 251 250 248 245 244 245 247
265 264 263 261 261 261 263 265 268 269 269 271 271 269 269 267 263 261 260 259 258 260 259 258 257 258 259 260 261 261 258 258 256 256 256 257 257 255 253 251 247 245 246 247
264 262 261 260 260 261 262 263 265 269 269 270 270 269 268 265 263 261 261 259 259 260 259 259 259 259 258 260 260 262 261 260 259 258 256 256 256 255 252 249 247 245 247 247
264 262 260 259 259 260 261 262 264 266 267 269 269 269 267 264 263 262 262 261 261 261 259 259 260 260 260 261 261 262 263 261 260 259 257 255 254 254 251 250 249 248 248 246
262 261 259 259 259 259 261 262 262 263 266 268 269 269 269 267 263 264 263 261 261 262 260 260 261 262 262 262 263 262 262 261 261 258 257 255 254 254 252 250 249 250 250 250
261 261 260 259 259 260 259 260 261 262 264 266 269 270 270 268 265 263 263 261 262 263 263 262 263 264 265 264 263 263 262 261 261 259 256 252 252 251 249 249 251 251 250 251
259 260 259 259 258 257 258 259 260 260 262 264 266 268 269 269 265 263 262 262 262 262 262 262 262 263 265 264 262 261 262 261 260 260 258 255 253 252 251 250 251 252 253 253
257 258 259 258 257 257 257 257 259 260 261 261 262 264 265 268 265 263 262 262 262 263 264 264 263 263 263 264 264 263 263 261 261 260 258 257 255 254 254 255 255 255 254 253
258 257 257 258 258 257 257 256 257 258 259 261 260 261 261 263 264 262 261 262 263 263 264 264 263 262 263 263 264 265 265 263 262 261 260 259 258 257 257 257 258 258 258 257
258 259 257 256 256 255 255 255 255 256 257 259 259 258 259 260 261 261 260 262 263 263 264 265 265 264 264 265 265 265 265 265 263 262 262 261 260 260 259 258 258 258 259 259
257 260 259 257 256 256 255 255 255 255 255 257 258 257 258 259 259 260 261 262 263 264 264 265 265 265 266 266 266 266 266 265 264 262 262 263 263 262 261 259 259 259 258 258
256 258 260 260 258 257 256 256 257 257 256 257 258 258 258 259 259 259 260 262 263 264 264 265 266 267 266 265 266 266 266 266 265 264 263 263 264 264 263 263 263 261 260 261
257 258 259 260 260 258 258 258 259 259 259 259 259 260 260 260 260 260 261 262 263 264 265 265 265 265 264 265 265 265 265 265 265 265 264 264 265 266 266 265 265 263 262 262
259 259 261 262 262 262 259 259 260 261 261 261 262 262 262 262 261 262 263 264 264 265 265 265 265 265 265 265 265 264 264 264 264 265 265 265 266 266 266 266 266 266 265 264
259 259 260 261 262 263 262 261 262 262 261 261 262 262 263 264 264 264 264 265 265 264 264 264 264 264 265 265 265 265 264 264 265 265 265 266 266 267 267 267 268 268 268 268
258 259 260 261 262 263 263 263 262 262 262 262 263 263 263 264 265 266 266 266 266 265 265 265 264 265 266 266 266 266 266 265 265 266 266 267 268 268 269 268 269 269 269 269
259 259 259 260 261 262 264 263 263 263 262 262 263 264 265 266 267 267 267 267 266 266 265 265 265 266 266 267 268 268 267 266 266 267 267 267 268 269 269 269 270 270 270 270
259 259 260 259 260 262 263 264 264 263 263 264 264 265 266 267 267 267 267 267 266 267 267 267 267 267 268 268 269 269 268 268 268 268 269 269 269 269 270 270 270 270 270 270
261 260 260 261 261 261 262 264 265 265 265 266 266 266 266 267 268 268 267 266 266 267 268 268 269 268 268 269 270 270 269 269 269 269 269 270 270 271 270 271 270 270 270 271
262 262 262 262 263 263 263 264 265 266 268 268 268 268 268 268 268 268 267 267 267 268 268 268 269 269 269 269 269 270 269 269 270 270 270 271 270 271 271 270 270 270 270 271
259 260 262 263 262 261 262 264 266 267 269 269 269 268 269 269 269 268 267 268 269 268 269 269 269 269 270 270 270 270 270 270 271 271 271 271 271 271 271 271 271 271 271 272
Height
5729 5729 5728 5727 5727 5726 5725 5724 5724 5723 5722 5721 5721 5722 5722 5721 5721 5722 5722 5722 5722 5722 5723 5723 5724 5726 5727 5728 5730 5732 5734 5735 5737 5739 5741 5743 5746 5749 5751 5754 5757 5761 5763 5765
5723 5723 5722 5721 5720 5720 5719 5718 5718 5717 5716 5715 5715 5715 5716 5716 5716 5716 5716 5717 5716 5717 5717 5718 5718 5719 5721 5722 5723 5724 5726 5728 5729 5731 5733 5736 5738 5740 5744 5746 5750 5752 5755 5757
5716 5717 5715 5714 5714 5714 5713 5713 5712 5711 5710 5709 5709 5710 5710 5710 5710 5710 5711 5711 5711 5711 5712 5713 5713 5713 5715 5715 5716 5718 5719 5720 5721 5723 5725 5727 5730 5732 5735 5738 5741 5744 5747 5749
5709 5710 5709 5708 5708 5707 5707 5707 5706 5705 5704 5704 5704 5702 5705 5704 5704 5705 5705 5705 5705 5706 5706 5707 5707 5708 5709 5710 5710 5711 5712 5713 5714 5716 5718 5720 5722 5725 5727 5730 5733 5735 5738 5741
5703 5702 5702 5702 5702 5701 5701 5701 5700 5699 5698 5698 5697 5696 5699 5698 5698 5699 5699 5699 5700 5700 5700 5701 5701 5702 5703 5703 5704 5704 5704 5705 5706 5708 5710 5712 5714 5716 5718 5720 5723 5726 5729 5732
5695 5695 5694 5695 5695 5694 5694 5694 5693 5692 5691 5691 5692 5690 5691 5692 5693 5693 5693 5693 5693 5694 5694 5695 5695 5695 5696 5697 5697 5698 5698 5699 5699 5700 5702 5704 5706 5707 5709 5711 5714 5717 5720 5723
5687 5687 5687 5687 5687 5687 5688 5688 5687 5685 5684 5685 5685 5684 5685 5685 5685 5685 5686 5686 5687 5687 5688 5688 5689 5689 5689 5690 5690 5691 5692 5692 5692 5693 5694 5695 5697 5699 5700 5703 5705 5708 5711 5714
5678 5679 5679 5679 5680 5680 5680 5681 5681 5679 5678 5678 5677 5677 5679 5679 5678 5678 5678 5679 5680 5681 5681 5682 5682 5683 5683 5683 5684 5684 5684 5684 5685 5685 5686 5687 5689 5690 5692 5694 5697 5699 5702 5704
5668 5669 5670 5671 5671 5672 5671 5672 5673 5672 5670 5670 5670 5671 5672 5671 5671 5671 5671 5672 5673 5674 5674 5674 5675 5676 5676 5676 5677 5677 5677 5677 5677 5677 5678 5679 5681 5682 5684 5686 5688 5690 5693 5695
5657 5658 5660 5660 5661 5662 5663 5664 5664 5663 5662 5662 5662 5663 5664 5664 5664 5664 5664 5664 5665 5666 5667 5667 5668 5668 5669 5669 5669 5669 5669 5669 5669 5669 5670 5671 5673 5674 5675 5678 5680 5682 5684 5686
5646 5647 5649 5650 5651 5653 5654 5654 5654 5654 5654 5654 5654 5658 5656 5656 5656 5656 5656 5657 5658 5658 5659 5659 5660 5660 5661 5661 5661 5661 5661 5662 5662 5662 5662 5663 5664 5666 5667 5669 5671 5673 5675 5677
5634 5635 5636 5639 5640 5641 5642 5643 5644 5645 5645 5645 5646 5650 5648 5647 5647 5647 5648 5649 5650 5650 5651 5651 5652 5652 5652 5653 5653 5653 5653 5653 5654 5654 5654 5655 5656 5657 5658 5660 5662 5663 5665 5667
5622 5623 5624 5626 5630 5630 5631 5632 5634 5635 5635 5635 5636 5641 5639 5639 5639 5639 5640 5641 5641 5642 5642 5642 5643 5643 5644 5644 5644 5644 5644 5644 5645 5645 5645 5646 5647 5648 5649 5650 5652 5653 5654 5656
5609 5610 5614 5616 5617 5619 5620 5622 5623 5624 5624 5625 5627 5630 5630 5629 5630 5630 5631 5631 5632 5633 5633 5633 5634 5634 5634 5634 5635 5634 5634 5634 5635 5635 5636 5636 5637 5638 5639 5640 5641 5642 5643 5644
5596 5598 5601 5603 5605 5607 5608 5610 5612 5612 5614 5615 5618 5618 5620 5620 5620 5621 5621 5622 5622 5623 5624 5624 5624 5624 5624 5625 5624 5624 5624 5624 5624 5625 5625 5626 5627 5628 5629 5629 5630 5631 5632 5633
5584 5586 5588 5590 5593 5593 5595 5598 5600 5601 5603 5604 5606 5608 5609 5609 5610 5611 5611 5611 5612 5612 5613 5613 5614 5614 5614 5614 5614 5614 5614 5614 5614 5614 5615 5616 5616 5617 5618 5618 5619 5620 5621 5621
5573 5575 5576 5578 5580 5580 5583 5587 5589 5590 5592 5594 5594 5598 5597 5598 5599 5599 5600 5601 5601 5601 5602 5602 5603 5603 5603 5603 5603 5603 5603 5603 5603 5603 5604 5605 5605 5606 5606 5607 5607 5608 5608 5609
5563 5564 5565 5566 5568 5568 5574 5575 5577 5578 5580 5581 5582 5584 5585 5586 5587 5588 5588 5589 5589 5590 5590 5591 5591 5591 5591 5591 5591 5591 5591 5591 5592 5592 5592 5593 5593 5594 5594 5595 5595 5595 5595 5596
5552 5554 5554 5555 5555 5557 5561 5564 5565 5567 5568 5569 5570 5572 5573 5574 5575 5576 5577 5577 5577 5578 5578 5579 5579 5579 5579 5579 5579 5579 5580 5580 5580 5581 5581 5581 5581 5582 5582 5582 5583 5582 5582 5583
5542 5543 5544 5544 5545 5546 5552 5553 5553 5555 5556 5558 5559 5560 5561 5562 5564 5565 5565 5565 5565 5565 5565 5566 5566 5567 5567 5567 5567 5567 5568 5568 5568 5568 5568 5569 5569 5569 5569 5569 5569 5569 5569 5569
5531 5532 5533 5534 5534 5536 5540 5541 5542 5545 5547 5547 5547 5548 5549 5550 5551 5552 5552 5553 5553 5554 5554 5554 5554 5555 5555 5555 5555 5555 5555 5555 5555 5555 5555 5556 5556 5556 5556 5556 5556 5555 5555 5555
5520 5522 5523 5524 5525 5529 5530 5531 5533 5533 5534 5535 5536 5537 5537 5538 5539 5539 5540 5541 5541 5542 5542 5542 5542 5543 5543 5542 5542 5542 5542 5542 5542 5543 5543 5543 5543 5542 5542 5542 5542 5541 5541 5540
5509 5512 5513 5514 5517 5518 5519 5520 5521 5522 5523 5524 5525 5526 5526 5527 5528 5528 5528 5529 5529 5530 5530 5530 5530 5530 5530 5530 5530 5530 5529 5529 5530 5530 5530 5529 5529 5529 5528 5528 5528 5527 5526 5526
5499 5501 5502 5503 5505 5507 5508 5509 5510 5511 5512 5513 5514 5515 5515 5516 5516 5517 5517 5518 5518 5518 5518 5518 5518 5518 5518 5518 5517 5517 5516 5516 5516 5516 5516 5516 5515 5515 5514 5514 5513 5512 5512 5511
5490 5491 5491 5493 5495 5496 5498 5498 5499 5500 5501 5502 5503 5503 5504 5504 5505 5505 5505 5506 5506 5506 5506 5506 5506 5506 5506 5505 5505 5504 5504 5504 5503 5503 5502 5502 5501 5501 5500 5499 5498 5498 5498 5497
5480 5481 5482 5484 5485 5487 5488 5489 5489 5490 5491 5491 5492 5492 5492 5492 5493 5493 5493 5494 5494 5494 5494 5494 5494 5494 5493 5493 5492 5492 5491 5491 5490 5490 5489 5488 5487 5487 5486 5485 5484 5483 5483 5482